Location: Riedlingen
(48.1569°N, 9.4757°E)
Time: 03:03:55
(UTC+02:00)

ISS - Pass Details

Date: 17 May 2021
Orbit: 417 x 422 km, 51.6° (Epoch: 15 June)

Event Time Altitude Azimuth Distance (km) Brightness Sun altitude
Rises 23:39:20 0° 268° (W) 2,364 0.4 -18.8°
Reaches altitude 10° 23:41:29 10° 274° (W) 1,502 -0.6 -18.9°
Maximum altitude 23:44:46 49° 351° (N) 554 -2.8 -19.1°
Drops below altitude 10° 23:48:04 10° 68° (ENE) 1,507 -1.0 -19.3°
Enters shadow 23:49:41 - 73° (ENE) 2,158 -0.2 -19.4°
